Location: Maiden
(35.5760°N, 81.2120°W)
Time: 02:39:46
(UTC-04:00)

A-11 Canister half - Pass Details

Date: 09 August 2020
Orbit: 1527 x 1682 km, 47.3° (Epoch: 25 September)

Event Time Altitude Azimuth Distance (km) Brightness Sun altitude
Rises 21:25:15 0° 298° (WNW) 4,890 13.8 -12.8°
Reaches altitude 10° 21:28:53 10° 289° (WNW) 3,880 12.5 -13.5°
Maximum altitude 21:37:05 31° 232° (SW) 2,543 10.3 -14.9°
Drops below altitude 10° 21:45:04 10° 175° (S) 3,763 10.7 -16.3°
Enters shadow 21:46:48 - 169° (S) 4,223 10.9 -16.5°
Sets 21:48:34 0° 165° (SSE) 4,723 - -16.9°
